Weather WX

World > North America > United States > New Jersey

Pine Brook, New Jersey Regional Weather

Lat: 40.86N, Lon: 74.34W
Wx Zone: NJZ008
Warning FLW WEATHER ALERT - (More Info. Click Here) Warning
Feedback

Pine Brook, NJ Regional Weather

Expires:201906251000;;046301
ASUS41 KOKX 250913
RWROKX

Regional Weather Roundup
National Weather Service New York NY
500 AM EDT TUE JUN 25 2019

Note: "FAIR" indicates few or no clouds below 12,000 feet with no
significant weather and/or obstructions to visibility.


NJZ001-105-106-008-010-013-015-019>022-104-251000-
New Jersey
  
CITY           SKY/WX    TMP DP  RH WIND       PRES   REMARKS
Newark/Liberty MOCLDY    74  68  81 SE5       29.81S                  
Teterboro      MOCLDY    75  67  76 SE8       29.80S                  
Caldwell       CLOUDY    74  68  81 E3        29.81F                  
Somerville     LGT RAIN  70  69  97 CALM      29.78F FOG              
Linden         CLOUDY    73  67  81 CALM      29.81S                  
Perth Amboy      N/A     72 N/A N/A S5          N/A                   
Sussex         CLOUDY    67  66  97 CALM      29.82S                  
Andover          N/A     70  67  90 CALM      29.82R                  
Trenton        CLOUDY    71  70  96 S6        29.79S                  
Millville      MOCLDY    74  72  93 VRB5      29.79S                  
Atlantic City  NOT AVBL                                               
Wrightstown    MOCLDY    70  70 100 E3        29.78                   
Toms River     CLOUDY    72 N/A N/A CALM      29.82R                  
Belmar         LGT RAIN  72  70  94 SE7       29.83R                  
$$
 

SKY/WX - Weather  TMP - Temperature  DP - Dew Point  RH - Relative Humidity
WIND - Wind Direction/Speed PRES - Barometric Pressure VSB - Visibility
WCI - Wind Chill Index E13G22 Wind - East Wind 13 mph/Gusts of 22 mph